Regional Weather Roundup
Issued by NWS Newport/Morehead, NC

Current Version | Previous Version | Text Only | Print | Product List | Glossary On
Versions: 1 2 3 4 5 6 7 8 9 10 11 12 13 14 15 16 17 18 19 20 21 22 23 24 25 26 27 28 29 30 31 32 33 34 35 36 37 38 39 40 41 42 43 44 45 46 47 48 49 50
000 ASUS42 KMHX 010013 RWRMHX WEATHER ROUNDUP FOR EASTERN NORTH CAROLINA NATIONAL WEATHER SERVICE NEWPORT/MOREHEAD CITY NC 800 PM EDT SAT APR 30 2016 NOTE: "FAIR" INDICATES FEW OR NO CLOUDS BELOW 12,000 FEET WITH NO SIGNIFICANT WEATHER AND/OR OBSTRUCTIONS TO VISIBILITY NCZ015>017-031-032-045>047-102-103-010100- NORTH COAST CITY SKY/WX TMP DP RH WIND PRES REMARKS EDENTON CLEAR 59 53 80 E5 30.19R ELIZABETH CITY CLOUDY 55 52 89 NE12 30.19R KITTY HAWK PTCLDY 54 51 91 NE7 30.17R MANTEO NOT AVBL $$ NCZ045>047-081-094-103-104-010100- CENTRAL COAST CITY SKY/WX TMP DP RH WIND PRES REMARKS FRISCO CLOUDY 56 54 93 NE7 30.17R SWANQUARTER NOT AVBL $$ NCZ095-097-098-100-101-010100- SOUTHERN COAST CITY SKY/WX TMP DP RH WIND PRES REMARKS BEAUFORT CLOUDY 63 57 81 NE8 30.16R CEDAR ISLAND NOT AVBL JACKSONVILLE CLOUDY 66 57 72 E14 30.13S PINEY ISLAND NOT AVBL WILMINGTON CLOUDY 65 58 78 E13 30.13R $$ NCZ011>013-027>030-043-044-078>080-089-090>093-098-010100- COASTAL PLAIN CITY SKY/WX TMP DP RH WIND PRES REMARKS AHOSKIE CLOUDY 59 54 83 CALM 30.17S CLINTON MOCLDY 66 60 82 E5 30.12R ELIZABETHTOWN CLOUDY 69 61 76 SE6 30.10R GOLDSBORO CLOUDY 63 63 100 E9 30.12R GREENVILLE CLOUDY 63 55 77 E6 30.16R HAVELOCK CLOUDY 63 57 81 E8 30.17R KENANSVILLE MOCLDY 63 57 79 E5 30.14R KINSTON CLOUDY 64 57 77 E3 30.15R NEW BERN CLOUDY 64 56 75 E8 30.16R RICHLANDS CLOUDY 65 58 78 E8 30.14R ROCKY MOUNT CLOUDY 60 56 86 E3 30.15R WASHINGTON CLOUDY 61 55 79 NE7 30.16R WHITEVILLE CLOUDY 68 61 78 E8 30.10R $$ AMZ130-135-150-152-154-156-158-170-250-252-270-ANZ085-086-088-633-658-670-010100- MARINE OBSERVATIONS STATION/POSITION TIME TEMP WIND PRES WAVE SWELL AIR SEA DIR/SP/G HT/PER HT/PER (UTC) (F) (DEG/KT/KT) (MB) (FT/S) (FT/S) CHESAPEAKE LIGHT 2300 52 50/ 15/ 16 1023.2 64 E VA BEACH 2350 53 53 20/ 14/ 16 1022.4 7/10 7/10 DUCK 2300 53 67 N/A 2 E DUCK 2311 59 N/A 5/ 9 2/11 OREGON INLET 2300 55 62 N/A 13E OREGON INLT 2300 55 N/A 5/ 9 5/ 9 HATTERAS CG 2300 58 69 N/A DIAMOND BUOY 2350 60 73 40/ 17/ 21 1020.6 5/10 3/10 CAPE LOOKOUT 0000 62 60/ 14/ 15 1020.9 BEAUFORT LAB 2300 63 67 N/A 30 SE NEW RVR IN 2325 68 N/A 4/ 5 27 SE WRIGHTSVLE 2308 66 70 70/ 17/ 23 1019.1 5 SE WRIGHTSVLE 2308 65 68 90/ 17/ 21 1020.2 225 S CAPE HAT 2350 71 50/ 14/ 16 1018.9 5/ 9 3/ 9 41 SE CHARLESTON 2350 75 73 90/ 12/ 12 1017.2 3/10 2/10 $$

USA.gov is the U.S. government's official web portal to all federal, state and local government web resources and services.